Starlink 31946

operational
NORAD ID: 59940 Int'l Des: 2024-106 Owner: SPXS Country: US Constellation: starlink
LEOCIRCULAR

Starlink 31946について

説明を読み込み中...

リアルタイム位置

3D地球を読み込み中...

次回通過

高度履歴

Altitude vs Time

uPlot chart will show altitude changes over time

軌道要素

1 59940U 24106U 25351.59925336 -.00001659 00000-0 -50786-4 0 9991
2 59940 42.9996 76.5092 0001141 275.7688 84.3034 15.27580536 78590
Epoch: Dec 17, 2025 • Age: 7 hours

現在のステータス

高度 482.8 km
速度 7.63 km/s
衛星直下点 1.74°N, 155.24°W
打ち上げ日 Jun 1, 2024
運用期間 1.5 years
タイプ internet

技術仕様

分類 Payload
質量 730.00 kg
乾燥質量 700.00 kg
総質量 730.00 kg
長さ 0.30 m
直径 4.10 m
スパン 29.00 m
形状 Box + pan
製造者 SPXS
バスタイプ Starlink V2M
フェーズステータス In Orbit
所有者/国 SPXS/US

大規模コンステレーション

Loading constellations...